星链-11077 [DTC] (STARLINK-11077 [DTC] )

导读 | 豆包AI

STARLINK-11077是美国SpaceX公司星链(Starlink)项目的卫星,于2024年1月3日发射升空,归属于美国。作为星链近地轨道卫星互联网星座的一员,它旨在为全球偏远地区、低密度人口区域等提供高速低延迟的宽带互联网接入服务,进一步推进星链全球覆盖的目标,丰富星座网络布局,支撑星链服务拓展与网络扩容。

基本信息
目录编号:
58707
目录名称:
STARLINK-11077
国际标识:
2024-002C
轨道中心:
EARTH
卫星名称:
星链-11077 [DTC]
卫星全名:
星链-11077 [DTC] (STARLINK-11077 [DTC] )
卫星状态:
在轨 (已飞行849 天)
发射日期:
2024-01-03 UTC
国别 :
美国 (US)
星等 :
--
轨道信息
数据来源 国际轨道数据
星历时间: 2026-05-01T11:20:20+0800
13小时前
查看轨道信息
半长轴: 6737.836km
偏心率: 0.0000873
轨道倾角: 53.159°
近地点辐角 73.075°
升交点赤经 15.557°
平近点角 287.036°
近地点: 359.11km
远地点: 360.288km
周期: 91.736分钟
每日圈数: 15.697199
详细信息
固有亮度:
5
最大亮度:
0.6
卫星平台:
Starlink v2.0 mini
覆盖范围:
全球
运营商:
太空探索技术公司
运营商所在国:
美国
制造商(研发单位):
太空探索技术公司
制造商所在国:
美国
使用方式:
暂无
卫星简介
星链(Starlink)计划是由太空探索技术公司(SpaceX)提出的一个巨型低轨卫星互联网星座项目,计划在2019年至2024年间在太空搭建由约1.2万颗卫星组成的“星链”网络,其中1584颗将部署在地球上空550千米处的近地轨道,并从2020年开始工作。该卫星仍在工作。
2D轨道图
3D轨道图
轨道高度分析图
轨道倾角分析图
轨道综合分析图
查看轨道综合分析图